Weather History for Douglas, WY

Change the Weather History Date:

Monday, March 17, 2014

  Actual Average Record
Temperature  
Mean Temperature 47 °F 36 °F  
Max Temperature 62 °F 50 °F 78 °F (2012)
Min Temperature 32 °F 22 °F 4 °F (2002)
Degree Days  
Heating Degree Days 18 29  
Month to date heating degree days 495 540  
Since 1 July heating degree days 6085 5940  
Cooling Degree Days 0 0  
Month to date cooling degree days 0 0  
Year to date cooling degree days 0 0  
Moisture  
Dew Point 24 °F    
Average Humidity 51    
Maximum Humidity 82    
Minimum Humidity 19    
Precipitation  
Precipitation T in 0.03 in 0.41 in (2003)
Month to date precipitation 0.09 0.38  
Year to date precipitation 1.55 1.17  
Sea Level Pressure  
Sea Level Pressure 29.42 in    
Wind  
Wind Speed 21 mph (WNW)    
Max Wind Speed 44 mph    
Max Gust Speed 55 mph    
Visibility 10 miles    
Events Snow    
T = Trace of Precipitation, MM = Missing Value Source: NWS Daily Summary

Daily Weather History Graph

Daily Weather History Graph

Search for Another Location

Airport:

Trip Planner

Search our weather history database for the weather conditions in past years. The results will help you decide how hot, cold, wet, or windy it might be!

Date:

Astronomy

Mar. 17, 2014 Rise Set
Actual Time 7:09 AM MDT 7:10 PM MDT
Civil Twilight 6:41 AM MDT 7:38 PM MDT
Nautical Twilight 6:08 AM MDT 8:11 PM MDT
Astronomical Twilight 5:35 AM MDT 8:45 PM MDT
Moon 8:32 PM MDT (3/17) 7:25 AM MDT (3/17)
Length of Visible Light 12h 56m
Length of Day
12h 00m
Full, 99% of the Moon is Illuminated
Mar 17
Full
Mar 23
Last Quarter
Mar 30
New
Apr 7
First Quarter
Apr 15
Full

Hourly Weather History & Observations

Time (MDT) Temp. Windchill Dew Point Humidity Pressure Visibility Wind Dir Wind Speed Gust Speed Precip Events Conditions
12:53 AM 48.0 °F - 21.9 °F 36% 29.76 in 10.0 mi WNW 10.4 mph - N/A   Clear
1:53 AM 48.0 °F - 21.0 °F 34% 29.70 in 10.0 mi West 24.2 mph 35.7 mph N/A   Clear
2:53 AM 46.9 °F - 19.9 °F 34% 29.68 in 10.0 mi Variable 5.8 mph - N/A   Clear
3:53 AM 46.9 °F - 21.0 °F 36% 29.61 in 10.0 mi NNW 8.1 mph 17.3 mph N/A   Clear
4:53 AM 48.0 °F - 21.0 °F 34% 29.56 in 10.0 mi WSW 23.0 mph 29.9 mph N/A   Clear
5:53 AM 50.0 °F - 21.0 °F 32% 29.53 in 10.0 mi West 21.9 mph 31.1 mph N/A   Clear
6:53 AM 50.0 °F - 19.9 °F 31% 29.51 in 10.0 mi WSW 21.9 mph 27.6 mph N/A   Clear
7:53 AM 50.0 °F - 21.0 °F 32% 29.47 in 10.0 mi WSW 18.4 mph 27.6 mph N/A   Clear
8:53 AM 50.0 °F - 19.9 °F 31% 29.43 in 10.0 mi WSW 21.9 mph - N/A   Clear
9:53 AM 53.1 °F - 21.9 °F 30% 29.39 in 10.0 mi WSW 18.4 mph - N/A   Clear
10:53 AM 59.0 °F - 19.9 °F 22% 29.33 in 10.0 mi WSW 35.7 mph 43.7 mph N/A   Clear
11:53 AM 57.9 °F - 19.0 °F 22% 29.29 in 10.0 mi West 28.8 mph 47.2 mph N/A   Clear
12:53 PM 59.0 °F - 19.9 °F 22% 29.25 in 10.0 mi West 27.6 mph 36.8 mph N/A   Clear
1:53 PM 60.1 °F - 19.9 °F 21% 29.22 in 10.0 mi WSW 29.9 mph 39.1 mph N/A   Clear
2:53 PM 60.1 °F - 18.0 °F 20% 29.20 in 10.0 mi West 33.4 mph 50.6 mph N/A   Clear
3:53 PM 57.9 °F - 16.0 °F 19% 29.21 in 10.0 mi West 36.8 mph 48.3 mph N/A   Clear
4:53 PM 55.0 °F - 16.0 °F 22% 29.21 in 10.0 mi West 29.9 mph 41.4 mph N/A   Clear
5:53 PM 52.0 °F - 26.1 °F 37% 29.24 in 10.0 mi NNW 25.3 mph 32.2 mph N/A   Mostly Cloudy
6:53 PM 42.1 °F 34.5 °F 32.0 °F 67% 29.35 in 10.0 mi North 15.0 mph 28.8 mph N/A   Mostly Cloudy
7:53 PM 41.0 °F 35.8 °F 32.0 °F 70% 29.37 in 10.0 mi North 8.1 mph - N/A   Overcast
8:53 PM 37.9 °F 32.1 °F 32.0 °F 79% 29.38 in 10.0 mi NNE 8.1 mph - N/A   Scattered Clouds
9:53 PM 37.9 °F 35.5 °F 30.9 °F 76% 29.38 in 10.0 mi Variable 3.5 mph - N/A   Overcast
10:53 PM 35.1 °F 25.2 °F 30.0 °F 82% 29.38 in 10.0 mi NNW 16.1 mph - N/A   Overcast
11:01 PM 34.0 °F 24.2 °F 28.9 °F 82% 29.44 in 10.0 mi NNW 15.0 mph - N/A   Overcast
11:30 PM 33.1 °F 24.4 °F 30.9 °F 92% 29.45 in 10.0 mi NW 11.5 mph - N/A   Overcast
11:39 PM 33.1 °F 24.9 °F 30.9 °F 92% 29.46 in 10.0 mi NW 10.4 mph - N/A   Overcast
11:53 PM 33.1 °F 23.0 °F 30.9 °F 92% 29.41 in 8.0 mi NW 15.0 mph - 0.00 in Snow Light Snow